Regional Weather Roundup
Issued by NWS

Home | Current Version | Previous Version | Text Only | Print | Product List | Glossary On
Versions: 1 2 3 4 5 6 7 8 9 10 11 12 13 14 15 16 17 18 19 20 21 22 23 24 25 26 27 28 29 30 31 32 33 34 35 36 37 38 39 40 41 42 43 44 45 46 47 48 49 50
000
ASUS46 KLOX 250611
RWRCA

SOUTHERN CALIFORNIA WEATHER ROUNDUP
NATIONAL WEATHER SERVICE OXNARD CALIFORNIA
1100 PM PDT SUN MAY 24 2015

NOTE: "FAIR" INDICATES FEW OR NO CLOUDS BELOW 12,000 FEET WITH NO
SIGNIFICANT WEATHER AND/OR OBSTRUCTIONS TO VISIBILITY.

  -  STATIONS PRECEEDED BY AN ASTERISK (*) ARE NOT NWS OR FAA
     STATIONS AND ARE NOT SUBJECT TO NWS AND FAA QUALITY CONTROL.

CAZ041-042-087-250700-
LA AND ORANGE COUNTY COASTAL AREAS


CITY           SKY/WX    TMP DP  RH WIND       PRES   REMARKS
L.A. DOWNTOWN  CLEAR     60  52  74 CALM      29.97S
L.A. AIRPORT   PTCLDY    59  54  83 W8        29.98S
LONG BEACH     CLEAR     61  54  77 NW3       29.97S

CITY           SKY/WX    TMP DP  RH WIND       PRES   REMARKS
AVALON           N/A     55 N/A N/A MISG        N/A
FULLERTON      CLEAR     62  53  72 CALM      29.97S
HAWTHORNE      CLEAR     61  54  77 W3        29.97F
*REDONDO BEACH   N/A     59  54  83 CALM      29.97F
SANTA ANA      CLOUDY    61  53  75 SW5       29.98S
STA MONICA APT CLEAR     60  53  77 CALM      29.97S
*STA MON PIER    N/A     59  55  88 SW1       29.97S
*UCLA            N/A     59  50  72 CALM      29.94F

$$

CAZ547-548-048-250700-
LA COUNTY VALLEYS AND INLAND EMPIRE


CITY           SKY/WX    TMP DP  RH WIND       PRES   REMARKS
BURBANK        CLEAR     60  50  69 S3        29.96S
VAN NUYS       CLEAR     62  49  62 CALM      29.96S

CITY           SKY/WX    TMP DP  RH WIND       PRES   REMARKS
CORONA AIRPORT CLEAR     58  53  83 CALM      29.98R
*CHATSWORTH      N/A     59  49  70 CALM      29.96F
CHINO          CLEAR     58  53  84 W6        29.98S
MARCH AFB      CLEAR     55  52  87 NW6       29.97S
*NORTHRIDGE      N/A     59  46  63 CALM        N/A
ONTARIO        PTCLDY    58  51  78 W6        29.97S
*PASADENA        N/A     59  52  77 CALM        N/A
RIVERSIDE      CLEAR     59  53  80 W7        29.97S
SAN BERNARDINO NOT AVBL
*WHITEMAN AP   NOT AVBL
*WOODLAND HILL   N/A     59  48  67 S2          N/A

$$

CAZ054-055-250700-
LA AND SAN BERNARDINO COUNTY MOUNTAINS


CITY           SKY/WX    TMP DP  RH WIND       PRES   REMARKS
*BIG BEAR AIRP CLEAR     41  32  70 CALM      30.10F
SANDBERG       CLEAR     58  45  62 NW16      30.03S

$$

CAZ028-029-059-060-099-250700-
ANTELOPE VALLEY AND SURROUNDING AREAS


CITY           SKY/WX    TMP DP  RH WIND       PRES   REMARKS
LANCASTER      CLEAR     61  45  55 SW13      29.93R
PALMDALE       CLEAR     61  46  57 SW13      29.94S

CITY           SKY/WX    TMP DP  RH WIND       PRES   REMARKS
29 PALMS       CLEAR     72  46  39 W16       29.94R
BARSTOW/DAGGET CLEAR     71  42  35 W16       29.87S
BISHOP         CLOUDY    63  51  65 CALM      29.94S
CHINA LAKE     CLEAR     69  40  34 VRB5      29.84S
EDWARDS AFB    CLEAR     62  45  54 SW8       29.89S
MOJAVE         FAIR      64  43  45 W14G24    29.91S
NEEDLES        CLEAR     81  37  20 SW16      29.79S
VICTORVILLE    CLEAR     59  46  63 S9        29.95S

$$

CAZ039-040-250700-
VENTURA AND SANTA BARBARA COUNTY COAST


CITY           SKY/WX    TMP DP  RH WIND       PRES   REMARKS
CAMARILLO      CLOUDY    59  53  80 CALM      29.97S
OXNARD AIRPORT CLOUDY    59  53  80 W8        29.98R
*POINT MUGU    CLOUDY    60  53  77 NW5       29.98S
SBA APT/GOLETA CLEAR     59  54  83 E8        29.96R
*SANTA BARBARA   N/A     60  53  77 CALM      30.04S
*VENTURA         N/A     59  53  81 CALM      29.59S

$$

CAZ044-045-250700-
VENTURA COUNTY VALLEYS


CITY           SKY/WX    TMP DP  RH WIND       PRES   REMARKS
*SIMI VALLEY     N/A     55  50  82 CALM      29.93S
*OJAI            N/A     53  47  82 CALM      29.92R
*FILLMORE        N/A     56  48  72 CALM      29.88R

$$

CAZ053-250700-
VENTURA COUNTY MOUNTAINS


CITY           SKY/WX    TMP DP  RH WIND       PRES   REMARKS

$$

CAZ034-035-036-250700-
CENTRAL COAST AND SANTA YNEZ VALLEY


CITY           SKY/WX    TMP DP  RH WIND       PRES   REMARKS
SAN LUIS OBISP CLOUDY    55  51  86 NW10      30.00F
SANTA MARIA    CLOUDY    55  52  89 NW8       30.01S

CITY           SKY/WX    TMP DP  RH WIND       PRES   REMARKS
*CAL POLY SLO    N/A     55  52  88 SW3G9       N/A
*PISMO BEACH     N/A     56  51  85 N3        30.01S
*SANTA YNEZ    CLOUDY    54  48  82 W5        30.00S

$$

CAZ037-038-051-250700-
SAN LUIS OBISPO COUNTY INTERIOR AND CUYAMA VALLEY


CITY           SKY/WX    TMP DP  RH WIND       PRES   REMARKS
*CUYAMA          N/A     58  47  66 W9        29.91S
PASO ROBLES    CLEAR     55  49  80 W10       29.96R

$$

CAZ032-033-061-250700-
SOUTHERN DESERTS


CITY           SKY/WX    TMP DP  RH WIND       PRES   REMARKS
BLYTHE         CLEAR     76  48  37 S9        29.81S
IMPERIAL       CLEAR     70  50  49 W5        29.81R
PALM SPRINGS   CLEAR     74  49  41 NW10      29.84S
THERMAL        CLEAR     73  50  44 NW8       29.79S

$$

ELSEWHERE ACROSS THE WESTERN UNITED STATES AND MEXICO


CITY           SKY/WX    TMP DP  RH WIND       PRES   REMARKS
DENVER, CO     MOCLDY    47  44  90 CALM      29.89S
GRAND CANYON,  MOCLDY    43  42  97 CALM      30.06F
HONOLULU, HI   MOCLDY    73  57  56 NE7       30.04R
KAHULUI, MAUI  MOCLDY    73  61  64 NE13      30.04R
LAKE TAHOE, CA PTCLDY    48  44  86 CALM      30.09S
LAS VEGAS, NV  TSTM      65  56  72 NE12      29.88R
MAMMOTH LAKES, CLOUDY    50  41  71 W10       30.12R
MEXICO CITY, M MOCLDY    59  52  77 NE3       30.37S
PHOENIX, AZ    CLEAR     76  40  27 SW3       29.83S
PORTLAND, OR   CLOUDY    57  48  72 NW9       30.03S
RENO, NV       CLOUDY    62  47  57 NW13      29.99S
SALT LAKE CITY MOCLDY    55  48  77 SE5       29.93S
SAN DIEGO, CA  MOCLDY    63  54  72 NW7       30.00S
SAN FRANCISCO, CLOUDY    56  50  80 SW8       30.00S
SAN JOSE, CA   CLOUDY    57  50  77 NW8       30.00S
SEATTLE, WA    CLOUDY    56  49  77 SW5       30.03R
TIJUANA, MEX   CLOUDY    59  52  77 W8        30.02

$$

STATION/POSITION TIME  TEMP    WIND        PRES    VSBY  WAVE
                       AIR SEA DIR/SP/G                  HT/PER
                 (UTC) (F)     (DEG/KT/KT) (MB)    (MI)  (FT/S)
POINT ARGUELLO B NOT AVBL
WEST SANTA BARBA 0550   55 54  330/ 17/ 19 1015.0R         5/ 9
POINT CONCEPTION NOT AVBL
EAST SANTA BARBA 0500   57 57  320/  2/  4 1014.5R
SANTA MONICA BAY 0550   59 61   10/  2/  4 1015.1R         4/16



USA.gov is the U.S. government's official web portal to all federal, state and local government web resources and services.